Hourly Data Report for July 26, 2017

CAPE RACE (AUT)
NEWFOUNDLAND

46°39'36.000" N
53°04'35.000" W
26.50 m
8401000
71800
WRA

Download Data

Hourly Data (July 2017)
Hourly Data Report for July 26, 2017
TIME
LST
Temp Definition
°C
Dew Point Definition
°C
Rel Hum Definition
%
Precip. Amount Definition
mm

Wind Dir Definition
10's deg

Wind Spd Definition
km/h
Visibility Definition
km
Stn Press Definition
kPa
Hmdx Definition


Wind Chill Definition


Weather Definition


00:30 8.9 8.8 99 0.0 3 22   101.31     LegendNANA
01:30 9.4 9.4 100 0.0 4 18   101.31     LegendNANA
02:30 9.6 9.6 100 0.0 3 19   101.30     LegendNANA
03:30 9.0 9.0 100 0.0 3 20   101.30     LegendNANA
04:30 10.3 10.2 100 0.0 3 21   101.34     LegendNANA
05:30 11.0 10.9 99 0.0 2 22   101.43     LegendNANA
06:30 11.3 11.0 98 0.0 2 16   101.47     LegendNANA
07:30 10.1 9.7 97 0.0 3 16   101.53     LegendNANA
08:30 10.7 10.3 98 0.0 3 14   101.58     LegendNANA
09:30 12.6 11.2 91 0.0 5 16   101.59     LegendNANA
10:30 13.3 10.7 84 0.0 4 19   101.57     LegendNANA
11:30 12.5 10.1 85 0.0 3 14   101.58     LegendNANA
12:30 14.1 11.1 82 0.0 5 10   101.56     LegendNANA
13:30 13.4 10.5 83 0.0 7 10   101.57     LegendNANA
14:30 13.5 10.6 83 0.0 11 11   101.54     LegendNANA
15:30 13.4 11.1 86 0.0 18 6   101.56     LegendNANA
16:30 13.2 11.0 87 0.0 21 12   101.57     LegendNANA
17:30 13.3 11.0 86 0.0 22 14   101.58     LegendNANA
18:30 12.7 10.3 86 0.0 23 15   101.57     LegendNANA
19:30 11.1 9.7 91 0.0 26 17   101.57     LegendNANA
20:30 10.0 9.4 96 0.0 26 17   101.62     LegendNANA
21:30 9.2 8.8 98 0.0 25 17   101.62     LegendNANA
22:30 8.7 8.3 98 0.0 25 17   101.60     LegendNANA
23:30 8.5 8.2 98 0.0 25 18   101.55     LegendNANA

Notes on Data Quality.

Legend

  • E = Estimated
  • M = Missing
  • NA = Not Available*
  • [empty] = Indicates an unobserved value
Date modified: